Moosonee, Ontario

3:44 AM EDT on October 18, 2017 (GMT -0400)
Moosonee

Weather History for CYMO - September, 2013

Change the Weather History Date:

Sunday, September 29, 2013

  Actual Average Record
Temperature  
Mean Temperature 59 °F -  
Max Temperature 68 °F 46 °F 71 °F (2004)
Min Temperature 50 °F 31 °F 26 °F (2002)
Degree Days  
Heating Degree Days 6    
Growing Degree Days 9 (Base 50)    
Moisture  
Dew Point 49 °F    
Average Humidity 67    
Maximum Humidity 88    
Minimum Humidity 51    
Precipitation  
Precipitation 0.00 in 0.10 in - ()
Sea Level Pressure  
Sea Level Pressure 29.71 in    
Wind  
Wind Speed 14 mph ()    
Max Wind Speed 24 mph    
Max Gust Speed 31 mph    
Visibility 9.0 miles    
Events Rain    
Averages and records for this station are not official NWS values.
T = Trace of Precipitation, MM = Missing Value Source: Averaged Metar Reports

Daily Weather History Graph

Daily Weather History Graph

Search for Another Location

Airport or City:

Trip Planner

Search our weather history database for the weather conditions in past years. The results will help you decide how hot, cold, wet, or windy it might be!

Date:

Astronomy

Sep. 29, 2013 Rise Set
Actual Time 7:20 AM EDT 7:04 PM EDT
Civil Twilight 6:47 AM EDT 7:37 PM EDT
Nautical Twilight 6:08 AM EDT 8:15 PM EDT
Astronomical Twilight 5:28 AM EDT 8:55 PM EDT
Moon 1:29 AM EDT (9/29) 4:26 PM EDT (9/29)
Length of Visible Light 12h 49m
Length of Day
11h 43m
Waning Crescent, 27% of the Moon is Illuminated
Sep 29
Waning Crescent
Oct 4
New
Oct 11
First Quarter
Oct 18
Full
Oct 26
Last Quarter

Hourly Weather History & Observations

Time (EDT) Temp. Dew Point Humidity Pressure Visibility Wind Dir Wind Speed Gust Speed Precip Events Conditions
12:00 AM 68.0 °F 50.0 °F 52% 29.70 in 9.0 mi South 17.3 mph 25.3 mph N/A   Clear
1:00 AM 66.2 °F 48.2 °F 52% 29.68 in 9.0 mi South 18.4 mph 24.2 mph N/A   Clear
2:00 AM 64.4 °F 50.0 °F 59% 29.66 in 9.0 mi South 16.1 mph 25.3 mph N/A   Clear
3:00 AM 64.4 °F 51.8 °F 64% 29.64 in 9.0 mi South 13.8 mph 26.5 mph N/A   Clear
4:00 AM 64.4 °F 51.8 °F 64% 29.60 in 9.0 mi South 17.3 mph 26.5 mph N/A   Clear
4:20 AM 64.4 °F 51.8 °F 64% 29.60 in 9.0 mi South 15.0 mph 24.2 mph N/A   Mostly Cloudy
4:59 AM 64.4 °F 53.6 °F 68% 29.60 in 9.0 mi South 15.0 mph 23.0 mph N/A   Scattered Clouds
5:00 AM 64.4 °F 51.8 °F 64% 29.60 in 9.0 mi South 13.8 mph 23.0 mph N/A   Scattered Clouds
5:13 AM 64.4 °F 51.8 °F 64% 29.60 in 9.0 mi South 17.3 mph 23.0 mph N/A   Mostly Cloudy
6:00 AM 66.2 °F 53.6 °F 64% 29.59 in 9.0 mi South 17.3 mph 25.3 mph N/A   Overcast
6:24 AM 66.2 °F 55.4 °F 68% 29.59 in 9.0 mi SSW 19.6 mph 26.5 mph N/A Rain Light Rain
7:00 AM 60.8 °F 57.2 °F 88% 29.61 in 9.0 mi SSW 18.4 mph 25.3 mph N/A Rain Light Rain
7:42 AM 60.8 °F 57.2 °F 88% 29.61 in 9.0 mi SSW 13.8 mph 21.9 mph N/A   Overcast
8:00 AM 60.8 °F 57.2 °F 88% 29.62 in 9.0 mi SSW 13.8 mph 23.0 mph N/A   Overcast
8:25 AM 60.8 °F 57.2 °F 88% 29.62 in 9.0 mi SSW 17.3 mph 24.2 mph N/A   Scattered Clouds
9:00 AM 60.8 °F 55.4 °F 82% 29.64 in 9.0 mi SW 17.3 mph 26.5 mph N/A   Partly Cloudy
10:00 AM 59.0 °F 50.0 °F 72% 29.66 in 9.0 mi WSW 21.9 mph 28.8 mph N/A   Scattered Clouds
10:04 AM 59.0 °F 50.0 °F 72% 29.67 in 9.0 mi SW 17.3 mph 28.8 mph N/A   Mostly Cloudy
11:00 AM 59.0 °F 46.4 °F 63% 29.69 in 9.0 mi SW 17.3 mph 27.6 mph N/A   Overcast
11:41 AM 60.8 °F 46.4 °F 59% 29.71 in 9.0 mi WSW 17.3 mph 24.2 mph N/A   Scattered Clouds
11:45 AM 62.6 °F 46.4 °F 55% 29.70 in 9.0 mi WSW 13.8 mph 24.2 mph N/A   Mostly Cloudy
12:00 PM 60.8 °F 44.6 °F 55% 29.72 in 9.0 mi WSW 24.2 mph 31.1 mph N/A   Mostly Cloudy
1:00 PM 59.0 °F 44.6 °F 59% 29.75 in 9.0 mi WSW 18.4 mph 27.6 mph N/A   Mostly Cloudy
2:00 PM 59.0 °F 44.6 °F 59% 29.77 in 9.0 mi WSW 16.1 mph 23.0 mph N/A   Overcast
3:00 PM 57.2 °F 44.6 °F 63% 29.81 in 9.0 mi West 13.8 mph 24.2 mph N/A   Overcast
4:00 PM 59.0 °F 41.0 °F 51% 29.82 in 9.0 mi WSW 15.0 mph 21.9 mph N/A   Overcast
5:00 PM 59.0 °F 42.8 °F 55% 29.83 in 9.0 mi WSW 12.7 mph - N/A   Overcast
5:19 PM 57.2 °F 42.8 °F 59% 29.83 in 9.0 mi WSW 6.9 mph - N/A   Scattered Clouds
6:00 PM 59.0 °F 42.8 °F 55% 29.84 in 9.0 mi SW 9.2 mph - N/A   Clear
7:00 PM 55.4 °F 42.8 °F 63% 29.86 in 9.0 mi WSW 4.6 mph - N/A   Clear
8:00 PM 51.8 °F 44.6 °F 76% 29.87 in 9.0 mi South 6.9 mph - N/A   Clear
9:00 PM 51.8 °F 44.6 °F 76% 29.88 in 9.0 mi South 5.8 mph - N/A   Clear
10:00 PM 50.0 °F 44.6 °F 82% 29.89 in 9.0 mi South 8.1 mph - N/A   Clear
11:00 PM 50.0 °F 42.8 °F 76% 29.89 in 9.0 mi SSW 9.2 mph - N/A   Clear